Location: Miles
(41.4492°N, 81.6087°W)
Time: 22:02:19
(UTC+00:00)

Vanguard 2 Rocket - Pass Details

Date: 22 September 2024
Orbit: 553 x 3298 km, 32.9° (Epoch: 12 October)

Event Time Altitude Azimuth Distance (km) Brightness Sun altitude
Rises 03:51:52 0° 212° (SSW) 3,212 - -44.0°
Reaches altitude 10° 03:54:23 10° 197° (SSW) 2,531 - -44.2°
Maximum altitude 03:59:07 24° 145° (SE) 2,199 - -44.6°
Drops below altitude 10° 04:06:03 10° 97° (E) 3,847 - -45.3°
Sets 04:10:59 0° 86° (E) 5,382 - -45.7°
